Tracking 30105 objects as of 24-Jan-2025
HD Live streaming from Space Station
objects crossing your sky now

ONEWEB-0593

Track ONEWEB-0593 now!
10-day predictions
ONEWEB-0593 is classified as:


NORAD ID: 54659
Int'l Code: 2022-166T
Perigee: 1,183.6 km
Apogee: 1,186.2 km
Inclination: 87.9 °
Period: 108.9 minutes
Semi major axis: 7555 km
RCS: Unknown
Launch date: December 8, 2022
Source: United Kingdom (UK)
Launch site: AIR FORCE EASTERN TEST RANGE (AFETR)
Your satellite tracking list
Your tracking list is empty




NASA's NSSDC Master Catalog

Two Line Element Set (TLE):
1 54659U 22166T   25024.42844310  .00000063  00000-0  12134-3 0  9998
2 54659  87.9328 345.3574 0001709  74.6397 285.4926 13.21828053104332
Source of the keplerian elements: AFSPC